[Iaude] MPEC N67: 2024 NF1 [a=1.76,e=0.45,i=17.8,H=24.4]
    mpec at cfa.harvard.edu 
    mpec at cfa.harvard.edu
       
    Fri Jul  5 17:58:16 EDT 2024
    
    
  
M.P.E.C. 2024-N67                                  Issued 2024 July 5, 21:56 UT
     The Minor Planet Electronic Circulars contain information on unusual
         minor planets, routine data on comets and natural satellites,
         and occasional editorial announcements.  They are published
    on behalf of Division F of the International Astronomical Union by the
          Minor Planet Center, Smithsonian Astrophysical Observatory,
                          Cambridge, MA 02138, U.S.A.
			  
             Prepared using the Tamkin Foundation Computer Network
                              MPC at CFA.HARVARD.EDU
            URL https://www.minorplanetcenter.net/    ISSN 1523-6714
                                    2024 NF1                                    
Observations:
     K24N01F  C2024 06 13.49530619 24 03.044-44 43 46.73         21.30GVEN067F51
     K24N01F  C2024 06 13.50373219 24 04.576-44 43 09.91         21.89GVEN067F51
     K24N01F  C2024 06 13.51216519 24 06.117-44 42 32.67         21.74GVEN067F51
     K24N01F  C2024 06 16.48923219 35 18.996-40 23 51.09         21.16GVEN067F51
     K24N01F* C2024 07 01.45549920 57 03.978+21 24 04.65         20.87wXEN067F52
     K24N01F  C2024 07 01.48323820 57 14.994+21 34 05.85         19.96wXEN067F52
     K24N01F  C2024 07 01.49718320 57 20.503+21 39 07.15         20.20wXEN067F52
     K24N01F 3C2024 07 02.37350421 04 03.593+26 47 30.01         21.19GVEN067T14
     K24N01F 3C2024 07 02.37545721 04 04.426+26 48 10.93         20.60GVEN067T14
     K24N01F 3C2024 07 05.38946621 28 53.680+42 15 55.35         21.73GVEN067T14
     K24N01F 3C2024 07 05.39044621 28 54.166+42 16 11.38         21.72GVEN067T14
     K24N01F 3C2024 07 05.39142521 28 54.643+42 16 27.47         21.75GVEN067T14
Observer details:
F51 Pan-STARRS 1, Haleakala.  Observers J. Herman, T. Lowe, P. Minguez, A.
    Schultz, I. Smith.  Measurers K. Chambers, T. de Boer, J. Fairlamb, H.
    Gao, M. Huber, C.-C. Lin, E. Magnier, Y. Ramanjooloo, R. Wainscoat, R.
    Weryk.  1.8-m Ritchey-Chretien + CCD.
F52 Pan-STARRS 2, Haleakala.  Observers J. Herman, T. Lowe, P. Minguez, A.
    Schultz, I. Smith.  Measurers K. Chambers, T. de Boer, J. Fairlamb, H.
    Gao, M. Huber, C.-C. Lin, E. Magnier, Y. Ramanjooloo, R. Wainscoat, R.
    Weryk.  1.8-m Ritchey-Chretien + CCD.
T14 Canada-France-Hawaii Telescope, Maunakea.  Observers R. Wainscoat, A.
    Acohido, T. Burdullis, H. Januszewski, H. Flewelling.  Measurers R. Weryk,
    R. Wainscoat.  3.6-m f/4.1 reflector + CCD.
Orbital elements:
2024 NF1                                                 Earth MOID = 0.0596 AU
Epoch 2024 Mar. 31.0 TT = JDT 2460400.5                 MPC                     
M 305.49393              (2000.0)            P               Q                  
n   0.42259426     Peri.   50.20932     +0.78109737     +0.54479973             
a   1.7586807      Node   274.66174     -0.62424584     +0.67015540             
e   0.4466888      Incl.   17.82454     -0.01428361     +0.50406845             
P   2.33           H   24.49          G   0.15           U   7                  
Residuals in seconds of arc
240613 F51  0.1+  0.2-    240701 F52  0.0   0.1-    240702 T14  0.1-  0.1+
240613 F51  0.0   0.1-    240701 F52  0.0   0.1+    240705 T14  0.0   0.0
240613 F51  0.1-  0.3+    240701 F52  0.0   0.1-    240705 T14  0.0   0.0
240616 F51  0.0   0.0     240702 T14  0.1+  0.1+    240705 T14  0.0   0.0
Ephemeris:
2024 NF1                 a,e,i = 1.76, 0.45, 18                  q = 0.9731
Date    TT    R. A. (2000) Decl.     Delta      r    Elong.  Phase     V
2024 06 05    18 57 12.1 -51 28 13   0.2231  1.1991   142.4    31.1    23.0
...
2024 06 20    19 50 11.0 -32 56 48   0.1093  1.1146   153.0    24.5    21.1
...
2024 06 28    20 33 15.3 +00 27 48   0.07337 1.0749   141.4    36.1    20.4
...
2024 07 04    21 16 55.7 +35 37 32   0.07708 1.0484   112.3    63.8    21.3
2024 07 05    21 25 22.6 +40 29 24   0.08040 1.0443   107.9    67.9    21.5
2024 07 06    21 34 11.2 +44 53 09   0.08431 1.0403   104.0    71.5    21.7
...
2024 07 12    22 34 42.5 +62 34 45   0.1157  1.0183    87.6    85.9    22.9
...
2024 07 20    00 10 46.3 +72 09 08   0.1666  0.9951    78.1    92.5    23.9
...
2024 08 04    02 52 37.2 +75 19 09   0.2642  0.9736    73.6    91.3    24.8
A. U. Tomatic                (C) Copyright 2024 MPC           M.P.E.C. 2024-N67
    
    
More information about the Iaude
mailing list